{"data":{"norad_id":82073,"intl_designator":"","name":"UNKNOWN","alt_names":[],"object_type":"UNKNOWN","status":"UNKNOWN","operator":null,"country":null,"launch_date":null,"launch_site_code":null,"launch_vehicle":null,"mission":null,"orbit_class":"UNKNOWN","rcs_meters":null,"size_class":null,"mass_kg":null,"dimensions":null,"purposes":[],"wikipedia_slug":null,"has_3d_model":false,"image_url":null,"decayed_at":null,"tle_current":{"epoch":"2026-09-17T09:18:58.516992Z","epoch_age_seconds":283218,"freshness":"STALE","line1":"1 82073U          26260.38817728  .00001747  00000+0  44208-3 0  9999","line2":"2 82073  97.7229 314.8134 0204880 155.5032 205.6063 14.40168354615218","mean_motion":14.40168354,"eccentricity":0.020488,"inclination_deg":97.7229,"raan_deg":314.8134,"arg_perigee_deg":155.5032,"mean_anomaly_deg":205.6063,"bstar":0.00044208,"rev_number":61521,"period_min":99.988310116693,"perigee_km":611.73827656926,"apogee_km":904.14626068043,"semimajor_km":7136.0792686248,"source":"CELESTRAK","updated_at":"2026-09-20T09:00:32.430059Z"}}}